Lid_Strength_Index
2 3 2 2 2 2 2 3 2 2 2 2 2 2 2 2 2 4 8 5 1 -2 -1 1 2 2 3 5 4 4 12 14 12 11 11 7 8 6 5 7 6 6 6 4 4
2 2 2 2 2 2 2 2 2 1 2 2 2 2 2 2 5 6 4 2 1 -1 1 3 5 4 6 6 6 9 12 12 8 8 9 7 8 7 7 8 8 7 5 4 4
2 2 2 2 2 1 1 1 1 1 1 2 2 2 2 3 8 9 0 1 2 1 2 2 3 5 8 7 7 8 12 9 8 7 7 8 8 7 8 9 8 8 6 5 5
2 2 1 0 0 0 0 1 1 1 1 1 1 1 2 4 16 5 0 1 1 2 2 3 4 7 9 10 7 11 8 8 7 6 7 8 6 8 7 7 5 5 5 6 5
0 -0 0 0 0 0 0 1 1 0 0 0 0 0 3 7 6 4 0 2 3 2 3 4 6 7 10 9 8 10 9 8 7 7 7 6 8 8 7 7 5 4 5 6 4
-0 -1 -0 0 0 0 0 1 0 -0 -1 -1 -1 -1 3 8 2 1 1 2 2 2 3 4 5 5 8 8 9 8 8 8 7 7 7 8 8 7 7 5 6 5 5 5 4
-1 -0 -0 0 0 0 0 -1 -1 -1 -1 -1 -1 0 4 6 1 1 1 2 1 2 4 3 3 6 6 9 7 8 10 9 8 8 9 7 10 9 6 6 7 6 6 5 4
-1 -0 0 0 0 0 -1 -1 -1 -1 -1 -1 -1 2 6 1 2 1 1 2 1 1 2 2 2 5 7 6 8 11 10 14 9 9 8 9 14 8 6 7 8 7 6 5 5
-0 0 0 0 0 -1 -1 -1 -2 -1 -1 -1 2 4 7 -0 3 1 1 3 2 2 2 1 3 7 7 11 13 12 16 14 12 8 9 10 12 8 7 7 8 7 7 6 5
0 0 0 0 -1 -2 -2 -1 -1 -1 -0 0 1 6 4 5 3 3 2 3 4 4 5 5 7 10 10 12 18 16 15 14 14 10 10 11 12 8 7 8 8 8 7 6 6
-0 0 0 -0 -1 -1 -0 3 6 8 5 7 7 6 5 3 2 3 2 3 4 6 10 8 11 14 12 11 11 12 13 14 12 10 11 12 12 10 8 8 9 8 7 7 6
-0 -0 -0 -1 -1 -2 2 4 4 4 8 5 4 4 3 3 6 4 2 6 7 11 9 11 14 10 9 10 11 12 14 14 12 11 11 12 12 10 9 9 8 8 7 7 6
-0 -0 -0 -1 -1 1 3 3 1 3 10 8 5 6 5 4 7 6 4 5 9 11 10 13 11 9 10 12 13 13 14 14 14 11 11 12 14 12 9 8 8 7 6 6 6
-0 -0 0 -0 2 3 4 1 1 3 16 11 7 6 4 5 8 3 3 6 8 11 10 11 9 11 11 13 12 15 11 12 13 14 18 12 19 14 11 10 9 8 7 7 6
0 1 -0 0 4 4 2 1 2 7 25 11 8 2 4 7 7 6 3 5 10 11 11 13 12 12 13 12 10 13 10 12 13 14 15 16 17 15 11 12 10 9 8 7 6
0 -0 -0 2 3 2 1 2 5 17 25 12 8 9 8 7 7 6 6 5 6 11 9 11 8 10 11 9 9 10 12 12 14 16 20 16 17 17 14 12 10 9 8 7 6
1 0 1 2 5 2 3 6 16 22 13 15 12 9 9 10 9 9 9 11 12 15 15 12 12 9 9 12 10 11 14 19 20 20 21 15 17 15 11 9 9 9 8 7 6
1 1 2 3 3 3 7 13 23 20 19 10 10 10 12 10 10 10 11 13 10 11 14 16 18 12 10 12 13 13 14 18 23 22 20 15 19 16 10 8 8 7 7 7 7
1 5 5 4 3 5 11 22 19 18 11 11 12 17 17 12 11 11 13 12 11 11 15 16 16 10 10 10 10 13 16 12 17 17 19 18 15 12 10 10 9 8 8 8 8
7 7 6 4 4 8 15 17 19 10 9 13 18 16 21 16 15 14 13 10 12 10 10 12 17 11 11 9 10 12 10 17 16 22 23 19 18 17 13 12 10 9 9 10 10
7 12 7 5 7 12 20 19 15 9 9 14 18 17 17 15 14 15 12 10 10 11 10 11 13 14 11 13 14 13 15 14 14 16 21 22 19 14 14 11 10 10 11 11 11
10 17 7 7 14 12 21 18 9 10 8 10 10 12 18 16 18 14 13 11 8 10 13 11 13 17 15 11 10 11 13 13 18 19 17 18 18 13 13 10 9 11 11 11 11
12 11 7 8 20 18 13 13 11 11 10 10 12 12 11 16 19 15 10 8 9 10 12 12 14 19 17 14 11 13 12 12 13 14 18 19 18 11 11 11 11 13 12 13 12
13 18 15 12 11 14 17 18 15 10 10 9 9 8 12 19 13 16 12 9 9 9 8 9 13 15 18 16 13 15 13 12 14 17 17 16 16 13 12 12 12 13 13 13 13
13 16 14 21 19 15 13 13 13 16 9 9 11 14 13 16 18 13 11 11 10 9 10 11 16 14 14 14 14 13 14 13 14 14 16 14 16 12 11 12 12 12 13 13 13
14 16 13 13 12 13 13 14 13 12 11 14 14 12 11 15 15 12 12 11 12 11 12 11 16 14 17 13 14 15 13 13 13 13 13 14 15 13 10 10 12 12 12 12 12
11 11 12 16 15 14 16 13 12 11 11 10 10 12 15 13 11 9 9 9 11 12 13 13 13 16 20 16 15 19 15 13 13 12 12 15 14 11 11 11 11 11 11 11 11